Wind_Speed
29 28 28 25 22 22 22 20 19 18 18 19 17 14 13 11 12 12 11 11 11 10 10 9 9 10 10 10 10 10 10 11 11 11 11 12 13 13 14 15 16 18 19 20
29 28 29 27 24 20 21 21 20 18 18 20 20 17 18 15 13 13 13 12 12 12 12 11 11 11 11 12 12 12 12 12 13 13 14 14 15 16 17 18 19 20 21 21
27 26 28 26 21 18 19 19 17 18 20 21 21 20 18 15 15 14 13 14 13 13 12 12 12 13 13 13 13 14 14 14 15 15 16 17 17 18 19 20 21 22 23 23
29 27 29 22 20 20 20 20 21 24 25 23 23 21 19 17 16 16 15 14 14 14 13 13 14 14 14 14 15 16 16 17 17 17 18 19 19 20 21 22 23 23 24 25
30 29 27 24 24 23 24 23 23 25 24 23 22 21 21 20 18 17 16 16 16 16 15 15 15 16 16 16 17 17 17 18 18 19 19 20 21 22 23 23 24 25 25 25
30 30 29 25 25 26 26 25 25 26 26 24 24 22 22 22 19 17 17 17 17 17 17 17 16 17 18 18 18 18 18 19 19 20 21 22 23 24 25 25 26 26 26 27
28 29 28 27 27 27 26 26 25 25 26 25 25 23 23 21 20 19 19 19 19 18 18 18 18 19 19 19 20 20 20 20 21 22 23 23 24 25 26 26 27 27 28 28
27 28 27 27 26 27 25 25 25 23 24 24 23 22 22 21 21 21 21 20 20 20 20 20 20 20 20 21 22 22 22 22 23 24 25 25 26 26 27 28 28 28 29 29
25 25 25 24 24 24 24 24 24 24 23 23 23 23 22 22 22 22 22 22 21 22 21 21 21 21 21 21 22 23 23 24 24 25 26 27 27 27 28 29 29 29 30 31
26 26 25 25 24 23 24 24 23 24 24 23 24 23 23 23 22 22 22 22 23 23 22 22 23 22 22 23 23 25 25 26 26 28 28 28 28 28 29 30 29 30 31 32
24 24 25 25 26 25 23 22 24 24 24 23 24 24 23 23 22 22 23 23 24 24 24 24 24 24 25 25 25 26 27 28 28 29 30 29 29 30 30 30 31 32 33 34
23 23 24 23 24 24 24 25 25 25 24 24 24 23 24 24 23 23 24 24 24 25 25 26 27 26 27 28 28 27 28 28 29 30 30 31 31 32 32 32 33 34 35 36
22 22 22 20 20 22 24 24 24 24 24 24 25 25 24 24 23 23 24 25 25 25 26 27 27 28 29 29 28 28 28 29 30 31 31 32 32 33 34 35 36 36 36 36
20 20 21 20 20 20 20 22 22 23 23 24 24 24 24 24 24 24 25 25 26 26 27 27 27 28 29 29 29 29 31 31 31 32 33 34 35 35 36 37 37 37 37 38
19 18 17 18 19 20 20 22 23 22 22 23 23 23 24 24 25 25 26 26 26 27 28 28 28 29 30 31 31 31 32 32 33 34 34 34 35 36 38 39 39 39 40 41
18 19 19 18 20 22 23 24 23 22 22 23 23 23 23 24 25 25 25 26 27 27 28 29 30 31 32 32 32 32 32 33 34 35 36 36 37 39 40 40 41 41 41 42
18 18 19 19 20 21 22 23 23 23 23 24 23 23 24 25 25 26 27 27 28 28 29 29 30 31 32 32 32 33 34 35 36 36 38 39 39 40 40 41 41 42 44 45
19 19 19 19 20 21 21 21 21 21 22 23 23 24 25 25 26 26 26 27 27 28 29 30 30 30 31 32 33 34 34 34 36 37 37 38 39 41 41 41 42 44 45 47
18 18 18 18 20 21 20 20 21 21 22 23 23 23 24 25 26 27 27 28 28 28 29 30 31 32 32 32 33 34 34 35 37 38 38 39 39 41 42 43 45 47 48 49
18 18 19 19 20 20 21 21 21 21 21 22 22 22 23 24 25 26 27 27 29 29 29 29 30 31 32 33 34 34 35 36 37 38 39 40 41 43 45 46 47 48 49 51
19 19 20 20 21 21 21 21 21 22 22 22 23 23 24 25 26 26 27 27 28 29 30 30 30 31 32 34 35 36 37 38 39 40 42 43 44 45 46 47 48 49 50 51
19 19 20 21 21 21 21 21 22 22 23 23 24 24 25 26 26 27 28 28 29 29 30 31 31 32 33 35 36 37 38 39 40 41 43 45 46 46 47 48 50 50 50 51
19 19 19 20 20 20 21 22 23 24 25 26 26 27 27 27 28 29 29 30 31 32 33 34 34 35 36 37 38 39 40 41 41 43 44 46 46 47 48 49 50 50 50 50
19 20 20 20 21 21 21 22 23 23 25 26 26 27 28 28 30 31 31 32 33 34 34 35 35 36 37 38 39 40 41 42 43 44 45 46 47 48 49 49 49 49 49 48
19 20 20 21 21 22 23 23 24 24 25 26 27 28 29 30 31 32 32 33 35 36 36 36 37 38 39 40 40 41 42 43 45 46 47 47 47 47 48 48 47 47 46 44
20 20 21 22 23 23 23 24 25 25 26 27 28 29 30 31 32 33 34 35 36 37 38 38 38 39 40 41 42 43 43 44 45 45 45 44 45 45 45 45 44 43 42 41
20 21 22 22 23 24 25 26 27 28 28 29 29 30 31 32 32 33 34 36 37 37 38 39 40 41 41 41 42 42 42 43 43 43 43 43 43 43 42 42 41 40 39 38
Wind_Direction
239 243 243 244 241 233 232 236 243 249 260 275 282 270 272 270 270 263 259 253 247 245 241 237 236 235 234 233 231 234 239 245 251 257 264 271 275 280 286 292 297 300 302 305
241 243 248 249 243 237 234 234 238 245 255 264 271 273 271 268 267 262 258 254 250 247 243 239 239 239 239 240 242 245 249 253 258 263 268 273 278 281 285 290 295 298 300 302
240 240 245 249 249 244 236 233 234 244 249 253 262 267 267 268 268 260 259 257 254 250 247 245 245 245 246 247 249 252 256 260 263 267 271 275 278 282 285 289 294 298 300 300
242 239 242 241 240 241 242 239 238 242 246 248 254 259 263 267 265 258 256 256 254 252 252 252 252 252 252 254 255 257 259 262 264 268 272 276 279 282 285 289 293 297 299 299
242 242 242 237 236 240 240 237 239 242 247 249 254 259 261 261 259 256 256 258 257 254 255 256 257 257 257 258 259 260 261 263 266 269 272 276 278 282 285 288 291 295 298 298
240 241 242 237 235 235 236 238 237 239 244 248 251 252 255 255 254 255 254 257 259 260 260 261 259 259 261 262 262 262 263 265 268 271 274 277 280 283 284 288 291 293 296 297
243 245 242 239 235 233 234 237 239 239 243 247 249 251 252 252 254 255 254 256 258 259 260 262 263 262 263 263 264 264 265 267 270 273 275 278 281 283 285 287 289 292 294 295
242 243 240 239 233 231 232 236 241 238 240 244 247 250 252 253 255 256 256 256 259 260 261 264 265 265 265 265 266 268 269 270 272 273 275 278 281 283 285 286 289 291 293 295
241 239 238 238 236 234 230 235 239 240 242 245 248 251 252 253 256 256 257 257 258 260 262 264 266 267 266 267 268 270 272 273 274 275 278 280 282 285 287 287 289 291 293 294
240 238 237 237 239 238 235 237 240 242 245 248 249 250 253 255 256 257 258 258 260 260 261 263 265 266 267 268 270 271 272 273 276 278 280 281 283 286 288 288 289 292 293 293
249 245 241 241 241 238 243 242 242 244 246 247 249 250 254 255 256 257 258 260 259 260 262 263 266 267 267 267 270 273 274 274 276 279 280 281 283 286 288 289 289 291 292 293
256 252 248 248 243 239 240 240 241 244 246 248 251 253 255 255 257 258 258 259 260 261 262 264 265 267 268 268 271 274 276 277 279 279 279 281 283 285 285 286 288 289 291 293
254 250 249 251 247 245 240 238 240 244 247 250 252 255 256 256 257 258 258 259 260 261 262 264 266 268 269 271 274 275 277 278 278 279 279 280 282 284 285 286 287 288 290 292
252 249 248 248 246 244 241 240 240 244 245 248 251 255 256 256 258 259 260 261 261 262 263 266 268 270 273 275 276 277 278 278 279 280 280 281 282 284 286 286 287 288 290 291
254 250 248 247 245 244 244 244 241 243 245 250 253 257 258 258 260 261 261 262 264 265 265 266 269 273 276 276 275 276 278 278 279 280 281 283 285 286 288 287 288 290 292 293
253 254 252 251 249 247 245 246 245 245 249 252 255 258 259 260 261 262 262 263 264 267 268 270 271 273 276 276 275 277 279 279 281 282 283 284 286 287 288 289 289 291 293 294
254 254 254 252 252 248 245 247 249 249 253 258 259 262 263 263 264 264 264 265 266 268 269 270 272 274 275 276 277 277 278 279 280 281 283 284 286 287 289 290 292 293 294 295
250 251 252 253 253 250 250 250 249 251 256 259 261 264 266 267 267 267 267 268 269 270 270 272 273 275 277 277 277 278 279 280 281 281 283 285 287 289 290 291 293 295 295 295
248 249 253 253 252 249 249 253 255 257 258 260 261 262 264 267 267 268 269 270 270 271 273 274 274 275 277 279 279 280 280 282 283 285 286 287 289 290 290 291 293 294 295 297
251 250 253 255 256 255 256 257 259 261 262 263 264 265 266 268 269 270 271 272 272 273 275 276 277 277 278 279 280 281 281 282 284 285 287 288 290 291 292 294 295 296 297 298
250 250 251 255 259 261 262 263 262 263 264 265 267 269 270 272 272 273 275 276 277 278 279 279 280 282 283 283 282 282 283 284 285 286 288 290 291 293 294 295 296 297 298 299
252 255 256 258 260 263 264 265 265 265 266 267 269 271 272 274 276 277 278 279 280 280 282 283 283 284 285 285 284 285 286 288 289 289 291 293 294 294 295 296 297 298 299 299
255 259 260 260 262 264 266 268 270 269 268 269 271 273 276 277 278 280 281 281 282 283 284 285 286 287 287 287 288 288 289 289 290 290 292 293 295 295 296 298 299 299 299 299
258 260 261 263 265 266 268 270 272 273 273 273 275 277 279 280 281 281 281 282 283 283 284 286 287 288 289 289 290 290 290 291 292 293 294 294 295 296 297 298 299 300 299 299
259 261 264 265 266 267 268 272 274 275 277 277 278 279 281 282 282 282 282 284 285 286 286 287 287 288 289 290 291 292 292 293 294 294 294 294 295 296 297 299 300 300 299 298
261 264 267 268 268 268 270 273 276 279 279 280 280 281 282 283 284 284 284 285 286 287 287 288 288 289 290 290 291 292 292 293 293 294 294 294 294 295 297 298 299 299 298 298
267 269 271 272 272 272 274 276 278 279 280 280 281 283 285 286 286 286 286 287 288 289 290 291 291 291 292 292 292 293 293 294 294 294 294 295 296 296 297 298 298 298 297 297
Height
5804 5806 5807 5808 5810 5813 5815 5818 5821 5822 5822 5821 5820 5821 5822 5824 5826 5827 5828 5829 5830 5831 5832 5833 5834 5836 5837 5839 5840 5841 5843 5844 5845 5846 5847 5848 5849 5849 5849 5849 5849 5848 5847 5846
5797 5800 5802 5802 5804 5807 5810 5813 5815 5818 5819 5819 5817 5818 5820 5821 5822 5824 5825 5826 5827 5828 5829 5831 5832 5834 5835 5836 5838 5839 5840 5841 5842 5843 5844 5845 5845 5845 5845 5845 5844 5843 5842 5841
5791 5794 5795 5797 5800 5802 5805 5807 5810 5813 5815 5815 5814 5815 5815 5817 5819 5820 5821 5823 5824 5825 5826 5828 5829 5831 5832 5833 5835 5836 5837 5838 5839 5839 5840 5840 5841 5841 5841 5840 5839 5838 5837 5836
5784 5788 5789 5795 5796 5797 5799 5802 5805 5808 5808 5810 5810 5811 5811 5813 5815 5816 5818 5819 5820 5822 5823 5825 5826 5827 5828 5830 5831 5832 5833 5834 5834 5835 5835 5835 5836 5835 5835 5835 5834 5833 5831 5830
5778 5780 5783 5789 5791 5792 5793 5795 5799 5800 5802 5804 5806 5807 5808 5809 5810 5812 5814 5816 5817 5818 5820 5821 5822 5823 5824 5825 5827 5827 5828 5829 5829 5830 5830 5830 5830 5830 5829 5828 5827 5826 5824 5823
5771 5774 5776 5782 5784 5784 5787 5788 5790 5793 5796 5799 5801 5802 5803 5804 5807 5809 5810 5812 5813 5814 5815 5816 5818 5819 5820 5821 5822 5822 5823 5823 5824 5824 5824 5824 5824 5823 5823 5822 5820 5819 5818 5816
5765 5767 5769 5774 5776 5778 5781 5782 5783 5787 5790 5793 5796 5797 5799 5800 5803 5804 5806 5807 5808 5809 5811 5812 5813 5814 5815 5815 5816 5817 5817 5818 5818 5818 5818 5818 5817 5817 5816 5815 5813 5812 5811 5809
5758 5761 5765 5766 5767 5770 5772 5775 5778 5780 5784 5787 5790 5791 5793 5795 5797 5799 5801 5802 5803 5804 5805 5806 5807 5808 5809 5810 5810 5810 5811 5812 5812 5811 5811 5811 5810 5809 5808 5807 5806 5804 5803 5801
5752 5756 5757 5758 5759 5761 5765 5769 5772 5775 5778 5781 5784 5786 5788 5790 5792 5794 5795 5796 5798 5799 5800 5801 5801 5802 5802 5803 5804 5804 5805 5805 5805 5804 5804 5804 5803 5802 5801 5799 5798 5796 5795 5793
5746 5747 5750 5753 5754 5756 5759 5763 5767 5770 5773 5775 5778 5780 5782 5784 5786 5788 5789 5790 5791 5792 5794 5794 5795 5795 5796 5796 5797 5797 5797 5797 5797 5797 5796 5796 5795 5794 5792 5791 5790 5788 5786 5784
5739 5742 5744 5747 5749 5752 5755 5757 5761 5764 5767 5769 5772 5774 5776 5778 5780 5781 5783 5784 5785 5786 5787 5788 5788 5789 5789 5789 5789 5789 5789 5789 5789 5789 5788 5787 5786 5785 5784 5783 5781 5779 5777 5775
5735 5736 5738 5740 5743 5746 5749 5752 5755 5758 5761 5763 5766 5768 5770 5772 5773 5774 5776 5777 5778 5779 5780 5780 5781 5781 5782 5782 5782 5781 5781 5781 5781 5780 5780 5779 5777 5777 5775 5774 5772 5770 5767 5765
5731 5731 5733 5736 5738 5740 5743 5746 5749 5752 5755 5757 5759 5761 5763 5765 5766 5767 5768 5770 5771 5772 5773 5773 5773 5774 5773 5774 5773 5773 5773 5773 5772 5771 5770 5769 5768 5767 5766 5764 5762 5760 5757 5755
5726 5727 5729 5732 5734 5736 5738 5740 5742 5745 5748 5750 5752 5754 5756 5758 5759 5760 5761 5762 5763 5764 5765 5766 5766 5766 5766 5765 5765 5765 5765 5764 5763 5762 5761 5760 5759 5757 5755 5754 5751 5749 5747 5744
5722 5723 5725 5726 5729 5730 5732 5734 5736 5738 5741 5744 5746 5747 5749 5750 5752 5753 5754 5755 5755 5756 5757 5757 5757 5757 5757 5757 5757 5756 5755 5754 5754 5753 5751 5750 5748 5747 5745 5743 5740 5738 5735 5732
5717 5718 5720 5721 5723 5725 5727 5729 5730 5732 5735 5737 5739 5740 5742 5743 5744 5745 5746 5747 5748 5748 5748 5748 5748 5748 5748 5748 5747 5747 5746 5745 5744 5742 5741 5739 5738 5736 5734 5731 5729 5726 5723 5720
5712 5714 5715 5717 5718 5720 5721 5722 5724 5726 5728 5730 5731 5733 5734 5736 5737 5738 5738 5739 5739 5739 5739 5739 5739 5739 5739 5738 5738 5737 5736 5735 5734 5732 5730 5729 5727 5725 5723 5720 5717 5714 5711 5707
5707 5709 5710 5711 5712 5714 5715 5716 5717 5719 5721 5723 5724 5726 5727 5728 5729 5729 5730 5730 5730 5731 5730 5730 5730 5730 5729 5729 5728 5727 5726 5725 5724 5722 5720 5718 5716 5714 5711 5708 5704 5701 5698 5694
5702 5703 5704 5706 5707 5708 5709 5709 5711 5713 5714 5716 5717 5718 5719 5720 5721 5721 5721 5722 5722 5722 5721 5721 5720 5720 5719 5718 5717 5717 5716 5714 5713 5711 5709 5706 5704 5701 5698 5695 5692 5688 5685 5680
5697 5698 5699 5700 5702 5703 5703 5704 5706 5707 5708 5709 5710 5711 5712 5713 5713 5713 5713 5713 5713 5713 5712 5712 5711 5711 5710 5709 5707 5706 5705 5703 5701 5699 5697 5694 5692 5689 5686 5682 5678 5674 5670 5665
5692 5693 5694 5695 5696 5697 5698 5699 5700 5701 5702 5703 5703 5704 5704 5705 5705 5705 5705 5705 5704 5703 5703 5702 5702 5701 5699 5698 5697 5695 5693 5692 5690 5687 5685 5681 5678 5675 5672 5668 5664 5660 5655 5650
5686 5687 5688 5690 5691 5692 5692 5693 5694 5695 5696 5696 5696 5697 5697 5697 5697 5696 5696 5696 5695 5694 5693 5692 5692 5690 5689 5687 5685 5684 5682 5679 5677 5674 5671 5668 5665 5661 5657 5654 5649 5645 5640 5635
5681 5681 5682 5683 5684 5685 5686 5687 5688 5688 5688 5689 5689 5689 5689 5688 5688 5688 5687 5686 5685 5685 5684 5683 5681 5679 5678 5676 5674 5672 5669 5667 5664 5661 5658 5655 5651 5647 5643 5639 5635 5630 5625 5620
5675 5676 5677 5678 5678 5679 5680 5680 5681 5681 5681 5681 5681 5681 5680 5680 5679 5678 5677 5676 5676 5674 5673 5672 5670 5668 5666 5664 5662 5659 5657 5654 5651 5648 5644 5641 5637 5633 5629 5625 5620 5616 5611 5606
5669 5670 5670 5671 5672 5673 5673 5673 5673 5673 5673 5673 5672 5672 5671 5671 5670 5669 5668 5666 5665 5664 5662 5661 5658 5656 5654 5651 5649 5646 5644 5641 5637 5634 5630 5626 5623 5619 5614 5610 5606 5602 5597 5593
5663 5664 5664 5665 5665 5665 5665 5665 5665 5665 5665 5664 5664 5663 5662 5661 5660 5659 5657 5656 5654 5652 5651 5649 5646 5644 5642 5639 5636 5634 5630 5627 5624 5620 5616 5612 5608 5605 5601 5597 5592 5588 5584 5580
5657 5658 5658 5658 5658 5658 5658 5657 5657 5657 5657 5656 5655 5654 5652 5651 5650 5648 5647 5645 5643 5641 5639 5637 5634 5631 5629 5626 5623 5620 5617 5613 5610 5606 5603 5599 5595 5592 5588 5584 5580 5576 5572 5568